EJU62CC LFBO-LFLL

Flight info

Callsign EJU62CC
Flight time 0h 39m
Altitude 26000
Route MEN DCT NINUN G53 MEZIN
Aircraft A320/M-SDE3FGHIRWY/LB1

Departure

Time 2026-05-05 19:14
Airport Toulouse-Blagnac Airport (LFBO)

Arrival

Time 2026-05-05 19:54
Airport Lyon Saint-Exupéry Airport (LFLL)
Time Latitude Longitude Altitude Speed Heading
2026-05-05 18:53 43.62867 1.37595 500 ft 0 kts 53°
2026-05-05 19:04 43.62860 1.37583 500 ft 2 kts 53°
2026-05-05 19:04 43.62851 1.37566 500 ft 2 kts 53°
2026-05-05 19:04 43.62842 1.37550 499 ft 2 kts 53°
2026-05-05 19:04 43.62835 1.37532 499 ft 2 kts 78°
2026-05-05 19:05 43.62831 1.37513 499 ft 2 kts 69°
2026-05-05 19:05 43.62828 1.37503 499 ft 0 kts 71°
2026-05-05 19:08 43.62828 1.37504 499 ft 0 kts 71°
2026-05-05 19:08 43.62830 1.37520 499 ft 2 kts 93°
2026-05-05 19:08 43.62811 1.37554 499 ft 6 kts 144°
2026-05-05 19:09 43.62760 1.37607 497 ft 11 kts 143°
2026-05-05 19:09 43.62689 1.37588 494 ft 14 kts 232°
2026-05-05 19:09 43.62632 1.37468 495 ft 14 kts 236°
2026-05-05 19:09 43.62575 1.37363 498 ft 12 kts 233°
2026-05-05 19:10 43.62497 1.37362 498 ft 14 kts 143°
2026-05-05 19:10 43.62409 1.37454 496 ft 17 kts 143°
2026-05-05 19:10 43.62307 1.37560 497 ft 18 kts 143°
2026-05-05 19:10 43.62204 1.37667 500 ft 18 kts 143°
2026-05-05 19:11 43.62099 1.37777 501 ft 19 kts 143°
2026-05-05 19:11 43.61988 1.37891 506 ft 19 kts 143°
2026-05-05 19:11 43.61874 1.38010 505 ft 21 kts 144°
2026-05-05 19:11 43.61750 1.38139 504 ft 21 kts 143°
2026-05-05 19:12 43.61659 1.38162 505 ft 12 kts 213°
2026-05-05 19:12 43.61632 1.38120 505 ft 0 kts 234°
2026-05-05 19:12 43.61625 1.38106 505 ft 3 kts 234°
2026-05-05 19:12 43.61605 1.38068 505 ft 6 kts 237°
2026-05-05 19:13 43.61601 1.37994 506 ft 8 kts 298°
2026-05-05 19:13 43.61647 1.37938 508 ft 11 kts 323°
2026-05-05 19:13 43.61887 1.37689 508 ft 79 kts 323°
2026-05-05 19:13 43.62519 1.37031 492 ft 143 kts 323°
2026-05-05 19:14 43.63421 1.36094 796 ft 167 kts 321°
2026-05-05 19:14 43.64352 1.35102 1466 ft 168 kts 320°
2026-05-05 19:14 43.65237 1.34123 2276 ft 163 kts 318°
2026-05-05 19:14 43.66071 1.33193 2750 ft 172 kts 319°
2026-05-05 19:15 43.67072 1.32079 3126 ft 189 kts 319°
2026-05-05 19:15 43.68063 1.30984 3421 ft 208 kts 321°
2026-05-05 19:15 43.69452 1.30084 3769 ft 233 kts 351°
2026-05-05 19:15 43.71062 1.30399 4175 ft 256 kts 23°
2026-05-05 19:16 43.72410 1.32059 4718 ft 274 kts 56°
2026-05-05 19:16 43.73340 1.34381 5535 ft 277 kts 59°
2026-05-05 19:16 43.74304 1.36736 6353 ft 280 kts 58°
2026-05-05 19:16 43.75288 1.39082 7172 ft 284 kts 58°
2026-05-05 19:17 43.76297 1.41468 7966 ft 288 kts 58°
2026-05-05 19:17 43.77315 1.43877 8762 ft 292 kts 58°
2026-05-05 19:17 43.78348 1.46323 9560 ft 296 kts 58°
2026-05-05 19:17 43.79398 1.48814 10341 ft 301 kts 58°
2026-05-05 19:18 43.80493 1.51410 10830 ft 316 kts 59°
2026-05-05 19:18 43.81571 1.54185 11216 ft 334 kts 64°
2026-05-05 19:18 43.82475 1.57210 11757 ft 344 kts 70°
2026-05-05 19:18 43.83205 1.60376 12489 ft 348 kts 73°
2026-05-05 19:19 43.83880 1.63507 13189 ft 351 kts 73°
2026-05-05 19:19 43.84591 1.66836 13875 ft 356 kts 74°
2026-05-05 19:19 43.85270 1.70007 14556 ft 358 kts 74°
2026-05-05 19:19 43.85984 1.73325 15240 ft 361 kts 74°
2026-05-05 19:20 43.86698 1.76639 15878 ft 363 kts 74°
2026-05-05 19:20 43.87439 1.80077 16534 ft 366 kts 75°
2026-05-05 19:20 43.88168 1.83468 17160 ft 369 kts 75°
2026-05-05 19:20 43.88903 1.86888 17770 ft 372 kts 75°
2026-05-05 19:21 43.89643 1.90343 18368 ft 374 kts 75°
2026-05-05 19:21 43.90395 1.93848 18962 ft 377 kts 75°
2026-05-05 19:21 43.91137 1.97313 19529 ft 379 kts 75°
2026-05-05 19:21 43.92064 2.00817 20064 ft 384 kts 66°
2026-05-05 19:22 43.93393 2.04042 20595 ft 389 kts 57°
2026-05-05 19:22 43.95098 2.07056 21133 ft 393 kts 51°
2026-05-05 19:22 43.96880 2.09947 21653 ft 396 kts 51°
2026-05-05 19:22 43.98697 2.12862 22167 ft 399 kts 51°
2026-05-05 19:23 44.00515 2.15792 22670 ft 401 kts 51°
2026-05-05 19:23 44.02299 2.18686 23252 ft 401 kts 52°
2026-05-05 19:23 44.04122 2.21655 23923 ft 399 kts 52°
2026-05-05 19:23 44.05904 2.24566 24491 ft 398 kts 52°
2026-05-05 19:24 44.07710 2.27531 24915 ft 401 kts 52°
2026-05-05 19:24 44.09526 2.30518 25269 ft 405 kts 52°
2026-05-05 19:24 44.11338 2.33502 25640 ft 409 kts 52°
2026-05-05 19:24 44.13200 2.36573 25910 ft 412 kts 52°
2026-05-05 19:25 44.15064 2.39648 25933 ft 413 kts 52°
2026-05-05 19:25 44.16914 2.42698 25923 ft 413 kts 52°
2026-05-05 19:25 44.18817 2.45840 25924 ft 414 kts 52°
2026-05-05 19:25 44.20689 2.48933 25923 ft 414 kts 53°
2026-05-05 19:26 44.22572 2.52054 25932 ft 414 kts 52°
2026-05-05 19:26 44.24424 2.55126 25918 ft 414 kts 52°
2026-05-05 19:26 44.26299 2.58239 25917 ft 413 kts 52°
2026-05-05 19:26 44.28162 2.61335 25914 ft 414 kts 52°
2026-05-05 19:27 44.30023 2.64427 25911 ft 413 kts 53°
2026-05-05 19:27 44.31861 2.67488 25908 ft 413 kts 53°
2026-05-05 19:27 44.33718 2.70585 25916 ft 414 kts 53°
2026-05-05 19:27 44.35566 2.73667 25909 ft 413 kts 53°
2026-05-05 19:28 44.37436 2.76789 25910 ft 413 kts 54°
2026-05-05 19:28 44.39298 2.79905 25910 ft 413 kts 54°
2026-05-05 19:28 44.41133 2.82979 25908 ft 414 kts 54°
2026-05-05 19:28 44.42938 2.86002 25908 ft 414 kts 54°
2026-05-05 19:29 44.44791 2.89118 25911 ft 415 kts 54°
2026-05-05 19:29 44.46674 2.92283 25904 ft 415 kts 54°
2026-05-05 19:29 44.48517 2.95382 25902 ft 416 kts 54°
2026-05-05 19:29 44.50395 2.98544 25893 ft 417 kts 54°
2026-05-05 19:30 44.52257 3.01686 25895 ft 417 kts 54°
2026-05-05 19:30 44.54134 3.04857 25899 ft 417 kts 54°
2026-05-05 19:30 44.55981 3.07979 25901 ft 417 kts 54°
2026-05-05 19:30 44.57851 3.11141 25894 ft 416 kts 54°
2026-05-05 19:31 44.59671 3.14314 25895 ft 416 kts 57°
2026-05-05 19:31 44.61327 3.17597 25893 ft 413 kts 61°
2026-05-05 19:31 44.62848 3.21092 25891 ft 412 kts 64°
2026-05-05 19:31 44.64258 3.24592 25892 ft 413 kts 65°
2026-05-05 19:32 44.65669 3.28141 25887 ft 412 kts 65°
2026-05-05 19:32 44.67000 3.31494 25890 ft 413 kts 65°
2026-05-05 19:32 44.68409 3.35028 25890 ft 413 kts 64°
2026-05-05 19:32 44.69815 3.38556 25895 ft 413 kts 65°
2026-05-05 19:33 44.71230 3.42102 25899 ft 413 kts 64°
2026-05-05 19:33 44.72648 3.45664 25893 ft 414 kts 64°
2026-05-05 19:33 44.74059 3.49212 25897 ft 413 kts 64°
2026-05-05 19:33 44.75472 3.52769 25893 ft 414 kts 64°
2026-05-05 19:34 44.76895 3.56348 25901 ft 414 kts 64°
2026-05-05 19:34 44.78328 3.59949 25899 ft 413 kts 64°
2026-05-05 19:34 44.79735 3.63488 25894 ft 413 kts 64°
2026-05-05 19:35 44.82539 3.70565 25902 ft 413 kts 64°
2026-05-05 19:35 44.83938 3.74111 25899 ft 412 kts 64°
2026-05-05 19:35 44.85331 3.77639 25908 ft 412 kts 64°
2026-05-05 19:35 44.86727 3.81182 25899 ft 412 kts 64°
2026-05-05 19:36 44.88122 3.84730 25898 ft 412 kts 64°
2026-05-05 19:36 44.89489 3.88215 25908 ft 412 kts 64°
2026-05-05 19:36 44.90767 3.91470 25904 ft 411 kts 64°
2026-05-05 19:36 44.92151 3.95005 25902 ft 411 kts 64°
2026-05-05 19:37 44.93569 3.98632 25832 ft 412 kts 64°
2026-05-05 19:37 44.94979 4.02239 25556 ft 410 kts 64°
2026-05-05 19:37 44.96378 4.05828 25290 ft 407 kts 64°
2026-05-05 19:37 44.97744 4.09337 25024 ft 402 kts 64°
2026-05-05 19:38 44.99103 4.12827 24750 ft 399 kts 64°
2026-05-05 19:38 45.00464 4.16344 24478 ft 397 kts 65°
2026-05-05 19:38 45.01696 4.19779 24186 ft 395 kts 63°
2026-05-05 19:38 45.03399 4.22998 23334 ft 406 kts 48°
2026-05-05 19:39 45.04782 4.24920 22548 ft 415 kts 45°
2026-05-05 19:40 45.13795 4.37229 19564 ft 411 kts 47°
2026-05-05 19:40 45.15789 4.40115 18986 ft 408 kts 47°
2026-05-05 19:40 45.17783 4.43024 18459 ft 403 kts 47°
2026-05-05 19:40 45.19731 4.45881 17973 ft 399 kts 47°
2026-05-05 19:41 45.21672 4.48739 17495 ft 394 kts 47°
2026-05-05 19:41 45.23566 4.51534 17033 ft 390 kts 47°
2026-05-05 19:41 45.25450 4.54315 16557 ft 387 kts 47°
2026-05-05 19:41 45.27345 4.57120 16079 ft 383 kts 47°
2026-05-05 19:42 45.29203 4.59863 15621 ft 380 kts 46°
2026-05-05 19:42 45.31059 4.62613 15166 ft 376 kts 46°
2026-05-05 19:42 45.32772 4.65154 14747 ft 373 kts 47°
2026-05-05 19:42 45.34041 4.67036 14429 ft 371 kts 47°
2026-05-05 19:43 45.36689 4.70970 13772 ft 367 kts 47°
2026-05-05 19:43 45.38454 4.73593 13328 ft 364 kts 47°
2026-05-05 19:43 45.40212 4.76174 12867 ft 361 kts 44°
2026-05-05 19:43 45.42318 4.78120 12164 ft 364 kts 20°
2026-05-05 19:44 45.44776 4.79142 11636 ft 361 kts 14°
2026-05-05 19:44 45.47228 4.80046 11128 ft 358 kts 14°
2026-05-05 19:44 45.49647 4.80936 10700 ft 352 kts 13°
2026-05-05 19:44 45.52002 4.81806 10327 ft 344 kts 13°
2026-05-05 19:45 45.54326 4.82672 9978 ft 337 kts 13°
2026-05-05 19:45 45.56596 4.83522 9664 ft 328 kts 14°
2026-05-05 19:45 45.58801 4.84351 9474 ft 316 kts 14°
2026-05-05 19:45 45.60882 4.85137 9404 ft 301 kts 13°
2026-05-05 19:46 45.62901 4.85900 9159 ft 294 kts 13°
2026-05-05 19:46 45.64883 4.86648 8683 ft 290 kts 13°
2026-05-05 19:46 45.66774 4.87362 8118 ft 289 kts 13°
2026-05-05 19:46 45.68734 4.88104 7612 ft 288 kts 14°
2026-05-05 19:47 45.70673 4.88837 7268 ft 284 kts 14°
2026-05-05 19:47 45.72599 4.89567 6889 ft 283 kts 14°
2026-05-05 19:47 45.74500 4.90287 6506 ft 283 kts 14°
2026-05-05 19:47 45.76419 4.91014 6136 ft 282 kts 14°
2026-05-05 19:48 45.78319 4.91736 5783 ft 280 kts 14°
2026-05-05 19:48 45.80232 4.92466 5434 ft 278 kts 15°
2026-05-05 19:48 45.82111 4.93183 5097 ft 276 kts 15°
2026-05-05 19:48 45.83969 4.93895 4748 ft 275 kts 16°
2026-05-05 19:49 45.85692 4.95092 4347 ft 274 kts 41°
2026-05-05 19:49 45.86520 4.96439 4101 ft 270 kts 60°
2026-05-05 19:49 45.87254 4.99833 3504 ft 263 kts 83°
2026-05-05 19:49 45.87490 5.02429 3151 ft 254 kts 85°
2026-05-05 19:50 45.87648 5.04897 2983 ft 239 kts 95°
2026-05-05 19:50 45.87207 5.07035 2960 ft 214 kts 128°
2026-05-05 19:50 45.86094 5.08296 2962 ft 198 kts 164°
2026-05-05 19:50 45.84754 5.08430 2940 ft 187 kts 185°
2026-05-05 19:51 45.83493 5.08272 2762 ft 176 kts 184°
2026-05-05 19:51 45.82291 5.08232 2537 ft 168 kts 180°
2026-05-05 19:51 45.81141 5.08273 2290 ft 162 kts 177°
2026-05-05 19:51 45.80017 5.08388 2067 ft 160 kts 175°
2026-05-05 19:52 45.78934 5.08527 1854 ft 150 kts 176°
2026-05-05 19:52 45.77917 5.08654 1648 ft 140 kts 176°
2026-05-05 19:52 45.76983 5.08765 1456 ft 128 kts 174°
2026-05-05 19:52 45.76093 5.08873 1308 ft 128 kts 175°
2026-05-05 19:53 45.75198 5.08983 1142 ft 128 kts 176°
2026-05-05 19:53 45.74286 5.09089 974 ft 129 kts 175°
2026-05-05 19:53 45.73394 5.09196 814 ft 129 kts 175°
2026-05-05 19:53 45.72623 5.09294 801 ft 82 kts 175°
2026-05-05 19:54 45.72207 5.09321 810 ft 35 kts 187°
2026-05-05 19:54 45.72030 5.09239 812 ft 17 kts 205°
2026-05-05 19:54 45.71983 5.09207 812 ft 0 kts 211°
2026-05-05 19:55 45.71983 5.09205 812 ft 0 kts 226°
2026-05-05 19:55 45.71982 5.09192 812 ft 3 kts 266°
2026-05-05 19:55 45.71979 5.09132 811 ft 8 kts 265°
2026-05-05 19:55 45.71973 5.09023 809 ft 12 kts 264°
2026-05-05 19:56 45.71964 5.08882 807 ft 15 kts 265°
2026-05-05 19:56 45.71956 5.08746 804 ft 8 kts 265°
2026-05-05 19:56 45.71954 5.08709 804 ft 3 kts 265°
2026-05-05 19:56 45.71950 5.08656 803 ft 7 kts 264°
2026-05-05 19:57 45.71945 5.08564 800 ft 11 kts 265°
2026-05-05 19:57 45.71929 5.08487 799 ft 12 kts 225°
2026-05-05 19:57 45.71815 5.08476 800 ft 12 kts 175°
2026-05-05 19:57 45.71729 5.08487 802 ft 12 kts 175°
2026-05-05 19:58 45.71644 5.08496 803 ft 12 kts 175°
2026-05-05 19:58 45.71555 5.08507 804 ft 13 kts 175°
2026-05-05 19:58 45.71459 5.08518 806 ft 14 kts 176°
2026-05-05 19:58 45.71414 5.08422 805 ft 14 kts 265°
2026-05-05 19:59 45.71414 5.08270 802 ft 16 kts 285°
2026-05-05 19:59 45.71445 5.08116 799 ft 9 kts 295°
2026-05-05 19:59 45.71489 5.08102 798 ft 7 kts 18°
2026-05-05 19:59 45.71526 5.08115 798 ft 0 kts 14°